Location: Chavenne
(46.6022°N, 3.2951°E)
Time: 13:32:27
(UTC+00:00)

SPOT 5 - Pass Details

Date: 09 April 2020
Orbit: 624 x 814 km, 98.3° (Epoch: 26 May)

Event Time Altitude Azimuth Distance (km) Brightness Sun altitude
Exits shadow 20:31:36 26° 65° (ENE) 1,252 3.9 -20.1°
Drops below altitude 10° 20:35:10 10° 9° (N) 2,009 5.5 -20.6°
Sets 20:37:38 0° 357° (N) 2,928 6.6 -20.9°
